STARLINK-35024, 65410

Orbit data source: Space-Track

STARLINK-35024, 65410 is a payload satellite owned by SpaceX/Seattle (US) in LEO that was launched on Sun, 31 Aug 2025 UTC via an FALCON 9 launch vehicle from the Air Force Eastern Test Range (AFETR). Payload-class satellites include a variety of spacecraft equipped with specific instruments for various scientific and technological missions. These include communications satellites like Starlink; space stations such as the ISS; scientific satellites like the Hubble; Earth observation satellites from companies like Planet Labs, Umbra, and HawkEye 360; GPS; miniature CubeSats for education and research; and military/defense satellites.

Loading next visibility...
Identifier
65410, 2025-192G
Orbit
LEO
Country
Flag of USUS
Related business
Manufacturer
SpaceX/Seattle
Mission
Operational Commercial Communications
Bus & Motor
STARLINK V2MO, Unknown motor
Mass
575 kg wet, ~530 kg dry
Launch date (UTC)
2025-08-31 (10 months ago)
Launch vehicle
FALCON 9
Launch site
Air Force Eastern Test Range (AFETR)
Object type
Payload
Rocket body
Debris
Shape & HBR
Box + 2 Pan, 17.7 m
Radar Cross Section
36.964 m², Large (>1 m²)

Expand to show TLE details & history
Last TLE update: 15 hours ago

TLE from 15 hours ago
0 STARLINK-35024
1 65410U 25192G   26171.23610578  .00023872  00000-0  77795-3 0  9994
2 65410  53.1590 115.3902 0001258  78.8249 281.2893 15.31725017 45099
Epoch: 2026-06-20T05:39Z
TLE epoch observation values (Epoch: 2026-06-20T05:39:59.539Z)
Latitude
-0.00008°
Longitude
121.93843°
Altitude
471.397 km
Speed
7.632 km/s
True Right ascension
07h 41m 33s
True Declination
0° 00' 00"
Sunlit
Object was in daylight at epoch
Visualization orbit readout
Latitude
Unknown
Longitude
Unknown
Altitude
Unknown
Speed
Unknown
Apparent Right ascension
Unknown
Apparent Declination
Unknown
Sunlit
N/A
Visualization observer readout
Local Sidereal Time
07:17:45
Azimuth
Unknown
Elevation
Unknown
Doppler factor
Unknown
Orbital elements
Apogee altitude
471.784 km
Perigee altitude
470.061 km
Semi-major axis
6,849.059 km
Eccentricity
0.00013
Inclination
53.159°
RAAN
115.3902°
Arg. of periapsis
78.8249°
True anomaly
281.27516°
Mean anomaly
281.2893°
Eccentric anomaly
281.28223°
Mean motion
3.8291 °/min
Orbital period
94.02 mins
BSTAR
0.00077795
Loading maneuver chart data...
Computing Atmospheric mass density...
Loading historical data...
Loading historical data...
Loading historical data...
Loading historical data...
Loading historical data...
Loading historical data...
Loading historical data...

Documentation

Showing up to 5 results
|